Weather History for Hatteras, NC

Change the Weather History Date:

Sunday, March 24, 2013

  Actual Average Record
Temperature  
Mean Temperature 50 °F 54 °F  
Max Temperature 60 °F 61 °F 80 °F (1907)
Min Temperature 40 °F 46 °F 26 °F (1971)
Degree Days  
Heating Degree Days 15 12  
Month to date heating degree days 375 344  
Since 1 July heating degree days 2107 2268  
Cooling Degree Days 0 0  
Month to date cooling degree days 0 0  
Year to date cooling degree days 0 0  
Moisture  
Dew Point 46 °F    
Average Humidity 70    
Maximum Humidity 93    
Minimum Humidity 46    
Precipitation  
Precipitation 0.32 in 0.16 in 4.57 in (1989)
Month to date precipitation 2.10 3.65  
Year to date precipitation 11.83 12.91  
Snow  
Snow 0.00 in - - ()
Month to date snowfall 0.0  
Since 1 July snowfall 0.0  
Snow Depth 0.00 in    
Sea Level Pressure  
Sea Level Pressure 29.63 in    
Wind  
Wind Speed 11 mph (ENE)    
Max Wind Speed 25 mph    
Max Gust Speed 39 mph    
Visibility 7 miles    
Events Rain    
T = Trace of Precipitation, MM = Missing Value Source: NWS Daily Summary

Daily Weather History Graph

Daily Weather History Graph

Search for Another Location

Airport:

Trip Planner

Search our weather history database for the weather conditions in past years. The results will help you decide how hot, cold, wet, or windy it might be!

Date:

Astronomy

Mar. 24, 2013 Rise Set
Actual Time 7:00 AM EDT 7:17 PM EDT
Civil Twilight 6:34 AM EDT 7:43 PM EDT
Nautical Twilight 6:05 AM EDT 8:12 PM EDT
Astronomical Twilight 5:34 AM EDT 8:43 PM EDT
Moon 4:48 PM EDT (3/24) 5:03 AM EDT (3/24)
Length of Visible Light 13h 08m
Length of Day
12h 17m
Waxing Gibbous, 91% of the Moon is Illuminated
Mar 24
Waxing Gibbous
Mar 27
Full
Apr 3
Last Quarter
Apr 10
New
Apr 18
First Quarter

Hourly Weather History & Observations

Time (EDT) Temp. Windchill Dew Point Humidity Pressure Visibility Wind Dir Wind Speed Gust Speed Precip Events Conditions
12:51 AM 42.1 °F - 37.0 °F 82% 29.96 in 10.0 mi Calm Calm - N/A   Clear
1:51 AM 44.1 °F 40.1 °F 30.9 °F 60% 29.94 in 10.0 mi ENE 6.9 mph - N/A   Clear
2:51 AM 42.1 °F 39.2 °F 30.9 °F 65% 29.94 in 10.0 mi East 4.6 mph - N/A   Clear
3:51 AM 46.0 °F 43.9 °F 30.9 °F 56% 29.93 in 10.0 mi ENE 4.6 mph - N/A   Clear
4:51 AM 48.0 °F - 28.9 °F 48% 29.93 in 10.0 mi ENE 5.8 mph - N/A   Clear
5:51 AM 46.9 °F - 33.1 °F 59% 29.90 in 10.0 mi NE 5.8 mph - N/A   Clear
6:51 AM 48.9 °F - 35.1 °F 59% 29.89 in 10.0 mi NE 6.9 mph - N/A   Scattered Clouds
7:51 AM 48.9 °F - 35.1 °F 59% 29.87 in 10.0 mi NE 8.1 mph 16.1 mph N/A   Clear
8:51 AM 50.0 °F - 37.9 °F 63% 29.88 in 10.0 mi NE 8.1 mph - N/A   Overcast
9:51 AM 48.0 °F - 41.0 °F 77% 29.84 in 8.0 mi ENE 8.1 mph 19.6 mph 0.01 in Rain Light Rain
10:51 AM 48.0 °F - 41.0 °F 77% 29.82 in 10.0 mi ENE 10.4 mph 16.1 mph 0.02 in Rain Light Rain
11:51 AM 48.0 °F - 43.0 °F 83% 29.75 in 5.0 mi ENE 11.5 mph 20.7 mph 0.04 in Rain Light Rain
12:26 PM 51.8 °F - 48.2 °F 88% 29.74 in 7.0 mi East 13.8 mph 18.4 mph 0.01 in Rain Light Rain
12:43 PM 53.6 °F - 48.2 °F 82% 29.73 in 10.0 mi ESE 17.3 mph 25.3 mph 0.01 in   Overcast
12:51 PM 54.0 °F - 48.9 °F 83% 29.72 in 10.0 mi ESE 17.3 mph 26.5 mph 0.01 in   Overcast
1:51 PM 55.0 °F - 48.9 °F 80% 29.66 in 10.0 mi East 10.4 mph 20.7 mph N/A   Overcast
2:51 PM 55.9 °F - 50.0 °F 80% 29.56 in 10.0 mi East 13.8 mph 27.6 mph N/A   Overcast
3:51 PM 57.0 °F - 51.1 °F 81% 29.48 in 9.0 mi East 21.9 mph 31.1 mph N/A   Overcast
4:51 PM 57.9 °F - 52.0 °F 81% 29.47 in 7.0 mi ESE 20.7 mph 27.6 mph N/A   Overcast
5:22 PM 57.2 °F - 53.6 °F 88% 29.46 in 2.5 mi East 18.4 mph 26.5 mph 0.01 in Rain Light Rain
5:51 PM 57.9 °F - 55.0 °F 90% 29.46 in 2.0 mi ESE 16.1 mph 24.2 mph 0.03 in Rain Light Rain
6:02 PM 57.2 °F - 55.4 °F 94% 29.45 in 1.8 mi East 15.0 mph 21.9 mph 0.02 in Rain Light Rain
6:18 PM 57.2 °F - 55.4 °F 94% 29.44 in 2.0 mi East 15.0 mph 20.7 mph 0.03 in Rain Light Rain
6:43 PM 57.2 °F - 55.4 °F 94% 29.43 in 2.0 mi East 10.4 mph - 0.03 in Rain Light Rain
6:51 PM 59.0 °F - 55.9 °F 90% 29.44 in 2.5 mi East 5.8 mph - 0.04 in Rain Light Rain
7:03 PM 59.0 °F - 57.2 °F 94% 29.44 in 3.0 mi Variable 4.6 mph - 0.00 in Rain Light Rain
7:48 PM 53.6 °F - 50.0 °F 88% 29.46 in 5.0 mi NE 9.2 mph 32.2 mph 0.02 in Rain Light Rain
7:51 PM 54.0 °F - 51.1 °F 90% 29.44 in 4.0 mi ENE 10.4 mph 32.2 mph 0.02 in Rain Light Rain
7:58 PM 53.6 °F - 50.0 °F 88% 29.49 in 2.5 mi North 19.6 mph 35.7 mph 0.03 in Rain Rain
8:02 PM 51.8 °F - 50.0 °F 94% 29.47 in 1.8 mi NNE 12.7 mph 35.7 mph 0.10 in Rain Heavy Rain
8:09 PM 53.6 °F - 51.8 °F 94% 29.49 in 3.0 mi North 13.8 mph 26.5 mph 0.15 in Rain Light Rain
8:16 PM 51.8 °F - 48.2 °F 88% 29.49 in 5.0 mi North 8.1 mph 21.9 mph 0.15 in Rain Light Rain
8:51 PM 48.9 °F - 46.0 °F 90% 29.48 in 10.0 mi NNE 17.3 mph 33.4 mph 0.15 in   Overcast
9:51 PM 48.0 °F - 45.0 °F 89% 29.49 in 10.0 mi NE 18.4 mph 32.2 mph N/A   Overcast
10:03 PM 48.2 °F - 44.6 °F 87% 29.50 in 10.0 mi NE 15.0 mph 32.2 mph N/A   Overcast
10:51 PM 48.0 °F - 43.0 °F 83% 29.51 in 10.0 mi NE 17.3 mph 34.5 mph N/A   Overcast
11:51 PM 48.0 °F - 44.1 °F 86% 29.51 in 10.0 mi NE 10.4 mph 21.9 mph N/A   Overcast